Location: Devore Heights
(34.2372°N, 117.4156°W)
Time: 09:09:13
(UTC+00:00)

Altair - Pass Details

Date: 19 September 2024
Orbit: 1501 x 1682 km, 47.2° (Epoch: 07 October)

Event Time Altitude Azimuth Distance (km) Brightness Sun altitude
Rises 11:56:56 0° 284° (WNW) 4,883 - -21.0°
Reaches altitude 10° 12:00:25 10° 293° (WNW) 3,914 - -20.3°
Exits shadow 12:01:40 14° 297° (WNW) 3,586 9.0 -20.1°
Maximum altitude 12:09:40 39° 359° (N) 2,349 8.5 -18.5°
Drops below altitude 10° 12:19:00 10° 66° (ENE) 3,940 10.9 -16.6°
Sets 12:22:31 0° 74° (ENE) 4,918 12.0 -15.9°
